Regional Weather Roundup
Issued by NWS

Home | Current Version | Previous Version | Text Only | Print | Product List | Glossary Off
Versions: 1 2 3 4 5 6 7 8 9 10 11 12 13 14 15 16 17 18 19 20 21 22 23 24 25 26 27 28

000
ASUS45 KCYS 250310
RWRWY

WYOMING REGIONAL WEATHER ROUNDUP
NATIONAL WEATHER SERVICE CHEYENNE WY
900 PM MDT WED MAY 24 2017

NOTE:  "FAIR" INDICATES FEW OR NO CLOUDS BELOW 12,000 FEET
WITH NO SIGNIFICANT WEATHER AND/OR OBSTRUCTIONS TO VISIBILITY.

WYZ001-250400-
YELLOWSTONE NATIONAL PARK

CITY           SKY/WX    TMP DP  RH WIND       PRES   REMARKS
LK YELLOWSTONE   N/A     48  16  27 VRB6      29.64R
W YELLOWSTONE  NOT AVBL

$$
WYZ002>013-054>058-071-098>099-250400-
NORTHERN WYOMING

CITY           SKY/WX    TMP DP  RH WIND       PRES   REMARKS
JACKSON        PTCLDY    55  12  18 S24G36    29.58F
CODY           FAIR      55  31  39 N6        29.50R
GREYBULL         N/A     67  29  24 NW26      29.36R
WORLAND        FAIR      68  38  33 N9        29.39R
SHERIDAN       FAIR      57  41  55 W13       29.46R
BUFFALO        FAIR      61  37  41 NW23G29   29.49R
GILLETTE       FAIR      61  50  67 N17G25    29.42R
HULETT         FAIR      63  50  63 NW8G17    29.38R
NEWCASTLE      FAIR      68  41  37 S10       29.34S

$$
WYZ014>020-022>026-101>103-250400-
CENTRAL WYOMING

CITY           SKY/WX    TMP DP  RH WIND       PRES   REMARKS
BIG PINEY      FAIR      51  45  79 E3        29.66S
PINEDALE       FAIR      48  45  87 N9        29.68R
DUBOIS         FAIR      55  27  33 MISG      29.57S
LANDER         FAIR      63  38  39 N21G28    29.50F
RIVERTON       FAIR      62  41  46 SW16      29.52S
CASPER         MOCLDY    69  35  28 W22G38    29.50R
DOUGLAS        FAIR      67  39  35 W13       29.46R

$$
WYZ021-027>030-104>119-250400-
SOUTHERN WYOMING

CITY           SKY/WX    TMP DP  RH WIND       PRES   REMARKS
EVANSTON       RAIN      51  46  83 SW32G41   29.75R
ROCK SPRINGS   CLOUDY    64  37  36 NW8       29.66R
DIXON            N/A     57  43  59 E5        29.68F
RAWLINS        FAIR      60  37  42 NW14      29.64S
SARATOGA       FAIR      61  34  36 W7        29.68F
LARAMIE        FAIR      52  33  48 W9        29.68F
CHEYENNE       FAIR      60  38  43 W8        29.62S
TORRINGTON     FAIR      70  41  34 W9        29.43R

$$




USA.gov is the U.S. government's official web portal to all federal, state and local government web resources and services.